Time,TemperatureF,DewpointF,PressureIn,WindDirection,WindDirectionDegrees,WindSpeedMPH,WindSpeedGustMPH,Humidity,HourlyPrecipIn,Conditions,Clouds,dailyrainin,SoftwareType,DateUTC
2013-04-29 00:00:00,50.1,49.6,30.15,SSE,156,4.3,23.5,98,0.11,,---,0.11,VWS V14.01,2013-04-29 04:00:00,
2013-04-29 00:01:00,54.4,44.1,30.18,South,173,4.6,6.6,68,0.00,,---,0.00,VWS V14.01,2013-04-29 04:01:00,
2013-04-29 00:06:00,54.9,44.6,30.18,SSW,204,2.3,6.8,68,0.00,,---,0.00,VWS V14.01,2013-04-29 04:06:00,
2013-04-29 00:11:00,54.9,44.8,30.18,SSW,197,4.8,6.8,69,0.00,,---,0.00,VWS V14.01,2013-04-29 04:11:00,
2013-04-29 00:16:00,54.7,44.7,30.17,South,181,5.9,7.0,69,0.00,,---,0.00,VWS V14.01,2013-04-29 04:16:00,
2013-04-29 00:21:00,54.5,44.6,30.17,South,176,4.1,7.0,69,0.00,,---,0.00,VWS V14.01,2013-04-29 04:21:00,
2013-04-29 00:26:00,54.6,44.8,30.17,SW,222,3.9,7.0,69,0.00,,---,0.00,VWS V14.01,2013-04-29 04:26:00,
2013-04-29 00:31:00,54.5,44.7,30.17,South,186,4.3,7.0,70,0.00,,---,0.00,VWS V14.01,2013-04-29 04:31:00,
2013-04-29 00:36:00,55.0,45.3,30.17,South,169,2.9,7.0,70,0.00,,---,0.00,VWS V14.01,2013-04-29 04:36:00,
2013-04-29 00:41:00,54.9,45.4,30.17,South,180,4.3,7.0,70,0.00,,---,0.00,VWS V14.01,2013-04-29 04:41:00,
2013-04-29 00:46:00,54.5,45.0,30.16,SSE,156,3.8,7.0,70,0.00,,---,0.00,VWS V14.01,2013-04-29 04:46:00,
2013-04-29 00:51:00,55.1,45.6,30.17,SSW,205,3.3,7.0,70,0.00,,---,0.00,VWS V14.01,2013-04-29 04:51:00,
2013-04-29 00:56:00,54.9,45.7,30.17,South,174,6.6,7.0,71,0.00,,---,0.00,VWS V14.01,2013-04-29 04:56:00,
2013-04-29 01:01:00,54.1,45.0,30.17,SSW,200,3.3,7.0,71,0.00,,---,0.00,VWS V14.01,2013-04-29 05:01:00,
2013-04-29 01:06:00,54.5,45.5,30.17,South,187,3.0,7.0,72,0.00,,---,0.00,VWS V14.01,2013-04-29 05:06:00,
2013-04-29 01:11:00,54.2,45.3,30.16,South,188,3.0,7.0,72,0.00,,---,0.00,VWS V14.01,2013-04-29 05:11:00,
2013-04-29 01:16:00,54.5,45.7,30.17,SSW,208,3.6,18.8,72,0.00,,---,0.00,VWS V14.01,2013-04-29 05:16:00,
2013-04-29 01:19:00,54.4,46.3,30.16,South,183,1.5,18.8,74,0.00,,---,0.00,VWS V14.01,2013-04-29 05:19:00,
2013-04-29 01:21:00,54.3,45.6,30.16,SSW,200,1.7,18.8,72,0.00,,---,0.00,VWS V14.01,2013-04-29 05:21:00,
2013-04-29 01:26:00,54.2,45.7,30.17,SSW,205,2.7,18.8,73,0.00,,---,0.00,VWS V14.01,2013-04-29 05:26:00,
2013-04-29 01:29:00,50.9,50.2,30.15,SSE,152,4.1,23.5,98,0.11,,---,0.11,VWS V14.01,2013-04-29 05:29:00,
2013-04-29 01:31:00,54.0,45.6,30.16,SSW,204,3.3,18.8,73,0.00,,---,0.00,VWS V14.01,2013-04-29 05:31:00,
2013-04-29 01:36:00,55.0,46.6,30.16,South,179,3.7,18.8,73,0.00,,---,0.00,VWS V14.01,2013-04-29 05:36:00,
2013-04-29 01:41:00,54.7,46.4,30.16,SSE,167,2.4,18.8,73,0.00,,---,0.00,VWS V14.01,2013-04-29 05:41:00,
2013-04-29 01:45:00,54.9,46.7,30.16,SSE,167,2.4,18.8,74,0.00,,---,0.00,VWS V14.01,2013-04-29 05:45:00,
2013-04-29 01:50:00,54.2,46.1,30.16,South,176,1.6,18.8,74,0.00,,---,0.00,VWS V14.01,2013-04-29 05:50:00,
2013-04-29 01:55:00,54.1,46.1,30.16,South,176,2.7,18.8,74,0.00,,---,0.00,VWS V14.01,2013-04-29 05:55:00,
2013-04-29 02:00:00,54.8,46.8,30.15,South,174,2.7,18.8,74,0.00,,---,0.00,VWS V14.01,2013-04-29 06:00:00,
2013-04-29 02:05:00,54.2,46.3,30.15,SSE,165,2.1,18.8,75,0.00,,---,0.00,VWS V14.01,2013-04-29 06:05:00,
2013-04-29 02:10:00,53.9,46.2,30.15,South,173,2.5,18.8,75,0.00,,---,0.00,VWS V14.01,2013-04-29 06:10:00,
2013-04-29 02:15:00,54.0,46.4,30.15,SSE,156,3.3,18.8,75,0.00,,---,0.00,VWS V14.01,2013-04-29 06:15:00,
2013-04-29 02:20:00,54.0,46.3,30.15,SSW,211,3.4,18.8,75,0.00,,---,0.00,VWS V14.01,2013-04-29 06:20:00,
2013-04-29 02:25:00,54.0,46.4,30.15,SSE,167,6.3,18.8,75,0.00,,---,0.00,VWS V14.01,2013-04-29 06:25:00,
2013-04-29 02:30:00,53.6,46.1,30.15,SSW,204,3.7,18.8,76,65.08,,---,0.00,VWS V14.01,2013-04-29 06:30:00,
2013-04-29 02:35:00,54.4,46.9,30.15,South,180,2.7,18.8,76,0.00,,---,0.00,VWS V14.01,2013-04-29 06:35:00,
2013-04-29 02:40:00,54.2,46.9,30.15,South,174,4.9,18.8,76,0.00,,---,0.00,VWS V14.01,2013-04-29 06:40:00,
2013-04-29 02:45:00,53.7,46.7,30.15,SSE,167,6.2,18.8,77,0.00,,---,0.00,VWS V14.01,2013-04-29 06:45:00,
2013-04-29 02:50:00,53.8,46.8,30.15,South,172,4.6,18.8,77,0.00,,---,0.00,VWS V14.01,2013-04-29 06:50:00,
2013-04-29 02:55:00,53.8,46.9,30.14,SSE,163,3.7,18.8,78,0.00,,---,0.00,VWS V14.01,2013-04-29 06:55:00,
2013-04-29 03:00:00,53.9,47.2,30.14,SSE,149,5.9,18.8,78,0.00,,---,0.00,VWS V14.01,2013-04-29 07:00:00,
2013-04-29 03:05:00,53.8,47.2,30.14,SE,124,2.8,18.8,78,0.00,,---,0.00,VWS V14.01,2013-04-29 07:05:00,
2013-04-29 03:10:00,53.8,47.2,30.14,SSE,167,2.0,18.8,78,0.00,,---,0.00,VWS V14.01,2013-04-29 07:10:00,
2013-04-29 03:15:00,53.8,47.4,30.13,SSE,149,3.5,18.8,79,0.00,,---,0.00,VWS V14.01,2013-04-29 07:15:00,
2013-04-29 03:20:00,53.5,47.2,30.14,SE,134,4.7,18.8,79,0.00,,---,0.00,VWS V14.01,2013-04-29 07:20:00,
2013-04-29 03:25:00,53.5,47.4,30.14,SSE,165,5.4,18.8,80,0.00,,---,0.00,VWS V14.01,2013-04-29 07:25:00,
2013-04-29 03:30:00,53.7,47.3,30.14,West,260,1.2,18.8,79,0.00,,---,0.00,VWS V14.01,2013-04-29 07:30:00,
2013-04-29 03:35:00,53.4,47.2,30.14,South,177,3.4,18.8,79,0.00,,---,0.00,VWS V14.01,2013-04-29 07:35:00,
2013-04-29 03:40:00,53.4,47.0,30.14,South,174,3.7,18.8,79,0.00,,---,0.00,VWS V14.01,2013-04-29 07:40:00,
2013-04-29 03:45:00,53.7,47.1,30.14,SSE,159,6.0,18.8,78,0.00,,---,0.00,VWS V14.01,2013-04-29 07:45:00,
2013-04-29 03:50:00,53.4,46.9,30.13,East,100,3.4,18.8,78,0.00,,---,0.00,VWS V14.01,2013-04-29 07:50:00,
2013-04-29 03:54:00,51.7,51.1,30.14,ENE,63,0.0,23.5,98,0.10,,---,0.10,VWS V14.01,2013-04-29 07:54:00,
2013-04-29 03:55:00,53.4,47.0,30.14,South,176,4.3,18.8,79,0.00,,---,0.00,VWS V14.01,2013-04-29 07:55:00,
2013-04-29 04:00:00,53.1,46.7,30.14,SE,146,2.9,18.8,79,0.00,,---,0.00,VWS V14.01,2013-04-29 08:00:00,
2013-04-29 04:05:00,53.4,47.2,30.14,South,179,4.9,18.8,79,0.00,,---,0.00,VWS V14.01,2013-04-29 08:05:00,
2013-04-29 04:10:00,53.4,47.5,30.14,SSE,159,3.4,18.8,80,0.00,,---,0.00,VWS V14.01,2013-04-29 08:10:00,
2013-04-29 04:15:00,53.2,47.4,30.14,SE,139,8.3,18.8,81,0.00,,---,0.00,VWS V14.01,2013-04-29 08:15:00,
2013-04-29 04:20:00,53.3,47.3,30.14,SSE,150,6.5,18.8,80,0.00,,---,0.00,VWS V14.01,2013-04-29 08:20:00,
2013-04-29 04:25:00,53.0,47.1,30.14,SW,228,4.0,18.8,80,0.00,,---,0.00,VWS V14.01,2013-04-29 08:25:00,
2013-04-29 04:30:00,53.1,47.3,30.14,WSW,245,3.3,18.8,81,0.00,,---,0.00,VWS V14.01,2013-04-29 08:30:00,
2013-04-29 04:35:00,52.9,47.1,30.14,WSW,250,1.8,18.8,81,0.00,,---,0.00,VWS V14.01,2013-04-29 08:35:00,
2013-04-29 04:40:00,52.8,47.1,30.14,SW,215,3.7,18.8,81,0.00,,---,0.00,VWS V14.01,2013-04-29 08:40:00,
2013-04-29 04:45:00,52.9,47.1,30.14,SSW,204,2.7,18.8,81,0.00,,---,0.00,VWS V14.01,2013-04-29 08:45:00,
2013-04-29 04:50:00,52.9,47.2,30.14,South,180,3.9,18.8,81,0.00,,---,0.00,VWS V14.01,2013-04-29 08:50:00,
2013-04-29 04:55:00,53.2,47.6,30.14,South,187,4.2,18.8,81,0.00,,---,0.00,VWS V14.01,2013-04-29 08:55:00,
2013-04-29 05:00:00,52.9,47.4,30.14,South,186,5.5,18.8,82,0.00,,---,0.00,VWS V14.01,2013-04-29 09:00:00,
2013-04-29 05:05:00,52.4,47.1,30.13,South,172,2.4,18.8,82,0.01,,---,0.01,VWS V14.01,2013-04-29 09:05:00,
2013-04-29 05:10:00,53.0,48.0,30.14,SSE,148,2.8,18.8,83,0.01,,---,0.01,VWS V14.01,2013-04-29 09:10:00,
2013-04-29 05:15:00,52.9,48.3,30.13,South,172,2.7,18.8,84,0.01,,---,0.01,VWS V14.01,2013-04-29 09:15:00,
2013-04-29 05:20:00,52.4,48.0,30.13,SSE,159,2.7,18.8,85,0.01,,---,0.01,VWS V14.01,2013-04-29 09:20:00,
2013-04-29 05:25:00,52.3,48.1,30.13,SE,127,2.2,18.8,85,0.01,,---,0.01,VWS V14.01,2013-04-29 09:25:00,
2013-04-29 05:30:00,51.9,47.9,30.13,SE,127,1.6,18.8,86,0.01,,---,0.01,VWS V14.01,2013-04-29 09:30:00,
2013-04-29 05:35:00,51.7,48.0,30.14,ESE,122,1.5,18.8,87,0.01,,---,0.01,VWS V14.01,2013-04-29 09:35:00,
2013-04-29 05:40:00,51.7,48.3,30.14,SE,132,1.1,18.8,88,0.01,,---,0.01,VWS V14.01,2013-04-29 09:40:00,
2013-04-29 05:45:00,51.4,48.4,30.14,SE,138,2.9,18.8,89,0.01,,---,0.01,VWS V14.01,2013-04-29 09:45:00,
2013-04-29 05:50:00,51.6,48.7,30.14,SE,132,2.9,18.8,90,0.01,,---,0.01,VWS V14.01,2013-04-29 09:50:00,
2013-04-29 05:55:00,51.8,49.1,30.14,SSE,153,2.1,18.8,90,0.01,,---,0.01,VWS V14.01,2013-04-29 09:55:00,
2013-04-29 06:00:00,50.8,48.1,30.14,SSE,165,5.7,18.8,90,0.01,,---,0.01,VWS V14.01,2013-04-29 10:00:00,
2013-04-29 06:05:00,51.6,48.9,30.15,SSE,165,2.9,18.8,90,0.01,,---,0.01,VWS V14.01,2013-04-29 10:05:00,
2013-04-29 06:10:00,51.7,48.9,30.15,South,169,5.4,18.8,90,0.01,,---,0.01,VWS V14.01,2013-04-29 10:10:00,
2013-04-29 06:15:00,51.6,48.7,30.15,SSE,153,3.2,18.8,90,0.01,,---,0.01,VWS V14.01,2013-04-29 10:15:00,
2013-04-29 06:20:00,51.4,48.5,30.15,SSE,158,3.0,18.8,90,0.01,,---,0.01,VWS V14.01,2013-04-29 10:20:00,
2013-04-29 06:25:00,51.4,48.5,30.15,SSE,153,3.4,18.8,90,0.00,,---,0.01,VWS V14.01,2013-04-29 10:25:00,
2013-04-29 06:30:00,51.6,48.8,30.15,SE,138,4.2,18.8,90,0.01,,---,0.01,VWS V14.01,2013-04-29 10:30:00,
2013-04-29 06:35:00,50.8,48.2,30.15,SSE,159,3.6,18.8,91,0.01,,---,0.01,VWS V14.01,2013-04-29 10:35:00,
2013-04-29 06:40:00,51.2,48.7,30.15,SSE,159,5.3,18.8,91,0.01,,---,0.01,VWS V14.01,2013-04-29 10:40:00,
2013-04-29 06:45:00,51.1,48.7,30.15,SSE,148,3.8,18.8,91,0.01,,---,0.01,VWS V14.01,2013-04-29 10:45:00,
2013-04-29 06:50:00,51.3,48.9,30.15,South,179,3.2,18.8,92,0.00,,---,0.01,VWS V14.01,2013-04-29 10:50:00,
2013-04-29 06:55:00,51.3,49.1,30.16,SSE,158,6.7,18.8,92,0.01,,---,0.01,VWS V14.01,2013-04-29 10:55:00,
2013-04-29 07:00:00,51.9,49.8,30.16,SE,145,5.0,18.8,92,0.01,,---,0.01,VWS V14.01,2013-04-29 11:00:00,
2013-04-29 07:05:00,51.2,49.2,30.16,SSE,150,7.5,18.8,93,0.01,,---,0.01,VWS V14.01,2013-04-29 11:05:00,
2013-04-29 07:10:00,51.9,50.1,30.16,ESE,108,5.1,18.8,93,0.02,,---,0.02,VWS V14.01,2013-04-29 11:10:00,
2013-04-29 07:15:00,51.3,49.5,30.16,SSE,166,6.8,18.8,94,0.02,,---,0.02,VWS V14.01,2013-04-29 11:15:00,
2013-04-29 07:20:00,50.9,49.2,30.17,SSE,152,6.3,18.8,94,0.02,,---,0.02,VWS V14.01,2013-04-29 11:20:00,
2013-04-29 07:25:00,51.8,50.1,30.17,SE,142,8.3,18.8,94,0.02,,---,0.02,VWS V14.01,2013-04-29 11:25:00,
2013-04-29 07:30:00,51.1,49.3,30.17,SE,124,4.5,18.8,94,0.02,,---,0.02,VWS V14.01,2013-04-29 11:30:00,
2013-04-29 07:35:00,51.3,49.7,30.17,SSE,165,5.5,18.8,94,0.02,,---,0.02,VWS V14.01,2013-04-29 11:35:00,
2013-04-29 07:40:00,51.2,49.7,30.16,SSE,163,3.5,18.8,95,0.02,,---,0.02,VWS V14.01,2013-04-29 11:40:00,
2013-04-29 07:45:00,51.5,50.1,30.17,SSE,148,5.2,18.8,95,0.02,,---,0.02,VWS V14.01,2013-04-29 11:45:00,
2013-04-29 07:50:00,51.2,49.8,30.17,SSE,159,6.3,18.8,95,0.02,,---,0.02,VWS V14.01,2013-04-29 11:50:00,
2013-04-29 07:55:00,51.2,49.8,30.16,SSE,159,4.6,18.8,95,0.02,,---,0.02,VWS V14.01,2013-04-29 11:55:00,
2013-04-29 08:00:00,51.2,49.8,30.16,SE,136,3.1,18.8,95,0.02,,---,0.02,VWS V14.01,2013-04-29 12:00:00,
2013-04-29 08:05:00,51.0,49.7,30.16,SSE,165,4.7,18.8,95,0.02,,---,0.02,VWS V14.01,2013-04-29 12:05:00,
2013-04-29 08:10:00,51.1,49.6,30.16,SSE,160,6.0,18.8,95,0.02,,---,0.02,VWS V14.01,2013-04-29 12:10:00,
2013-04-29 08:15:00,51.6,50.0,30.16,SE,141,6.8,18.8,94,0.02,,---,0.02,VWS V14.01,2013-04-29 12:15:00,
2013-04-29 08:20:00,51.4,49.7,30.17,SSE,165,6.0,18.8,94,0.02,,---,0.02,VWS V14.01,2013-04-29 12:20:00,
2013-04-29 08:25:00,51.4,49.5,30.16,SSE,155,7.1,18.8,93,0.02,,---,0.02,VWS V14.01,2013-04-29 12:25:00,
2013-04-29 08:30:00,51.6,49.6,30.16,SE,124,5.6,18.8,93,0.02,,---,0.02,VWS V14.01,2013-04-29 12:30:00,
2013-04-29 08:35:00,51.9,49.8,30.16,SSE,159,5.0,18.8,92,0.02,,---,0.02,VWS V14.01,2013-04-29 12:35:00,
2013-04-29 08:40:00,51.5,49.3,30.16,SE,146,5.2,18.8,92,0.00,,---,0.02,VWS V14.01,2013-04-29 12:40:00,
2013-04-29 08:45:00,51.8,49.5,30.16,East,101,5.6,18.8,92,0.02,,---,0.02,VWS V14.01,2013-04-29 12:45:00,
2013-04-29 08:50:00,51.8,49.4,30.16,SSE,167,6.5,18.8,91,0.00,,---,0.02,VWS V14.01,2013-04-29 12:50:00,
2013-04-29 08:55:00,51.8,49.4,30.16,SE,134,4.7,18.8,91,0.02,,---,0.02,VWS V14.01,2013-04-29 12:55:00,
2013-04-29 09:00:00,51.7,49.2,30.16,ESE,121,4.6,18.8,91,0.02,,---,0.02,VWS V14.01,2013-04-29 13:00:00,
2013-04-29 09:05:00,51.9,49.2,30.16,SSE,148,6.4,18.8,90,0.02,,---,0.02,VWS V14.01,2013-04-29 13:05:00,
2013-04-29 09:10:00,51.8,49.0,30.16,South,169,4.5,18.8,90,0.02,,---,0.02,VWS V14.01,2013-04-29 13:10:00,
2013-04-29 09:15:00,51.8,48.8,30.16,South,173,3.5,18.8,89,0.00,,---,0.03,VWS V14.01,2013-04-29 13:15:00,
2013-04-29 09:20:00,52.3,49.3,30.16,SSE,163,7.9,18.8,89,0.03,,---,0.03,VWS V14.01,2013-04-29 13:20:00,
2013-04-29 09:25:00,52.4,49.3,30.16,South,187,8.3,18.8,89,0.03,,---,0.03,VWS V14.01,2013-04-29 13:25:00,
2013-04-29 09:30:00,52.1,48.7,30.16,South,172,5.5,18.8,88,0.03,,---,0.03,VWS V14.01,2013-04-29 13:30:00,
2013-04-29 09:35:00,52.2,48.9,30.15,South,169,5.8,18.8,89,0.03,,---,0.03,VWS V14.01,2013-04-29 13:35:00,
2013-04-29 09:40:00,52.2,49.1,30.16,SSE,155,6.8,18.8,89,0.03,,---,0.03,VWS V14.01,2013-04-29 13:40:00,
2013-04-29 09:45:00,52.1,49.1,30.16,SE,138,5.1,18.8,90,0.03,,---,0.03,VWS V14.01,2013-04-29 13:45:00,
2013-04-29 09:50:00,52.1,49.6,30.16,SSE,152,4.8,18.8,91,0.03,,---,0.03,VWS V14.01,2013-04-29 13:50:00,
2013-04-29 09:55:00,52.1,49.6,30.15,South,173,5.7,18.8,91,0.03,,---,0.03,VWS V14.01,2013-04-29 13:55:00,
2013-04-29 10:00:00,51.4,48.8,30.15,SSE,165,6.5,18.8,91,0.03,,---,0.03,VWS V14.01,2013-04-29 14:00:00,
2013-04-29 10:05:00,52.3,50.0,30.16,South,177,7.5,18.8,92,0.03,,---,0.03,VWS V14.01,2013-04-29 14:05:00,
2013-04-29 10:10:00,52.1,49.9,30.15,SSW,204,5.3,18.8,92,0.04,,---,0.04,VWS V14.01,2013-04-29 14:10:00,
2013-04-29 10:15:00,52.1,50.0,30.16,South,170,5.8,18.8,93,0.04,,---,0.04,VWS V14.01,2013-04-29 14:15:00,
2013-04-29 10:20:00,52.2,50.4,30.16,South,176,5.9,18.8,93,0.04,,---,0.04,VWS V14.01,2013-04-29 14:20:00,
2013-04-29 10:25:00,52.5,50.7,30.15,SE,132,8.1,18.8,94,0.04,,---,0.04,VWS V14.01,2013-04-29 14:25:00,
2013-04-29 10:29:00,52.4,50.6,30.15,SSE,158,7.6,18.8,94,0.04,,---,0.04,VWS V14.01,2013-04-29 14:29:00,
2013-04-29 10:34:00,52.7,51.1,30.15,SSE,158,7.6,18.8,94,0.04,,---,0.04,VWS V14.01,2013-04-29 14:34:00,
2013-04-29 10:39:00,52.7,51.1,30.15,SSE,166,8.6,18.8,94,0.00,,---,0.04,VWS V14.01,2013-04-29 14:39:00,
2013-04-29 10:44:00,51.8,50.2,30.15,SSE,150,8.6,18.8,94,0.04,,---,0.04,VWS V14.01,2013-04-29 14:44:00,
2013-04-29 10:49:00,52.9,51.4,30.15,SSE,162,6.8,18.8,95,0.05,,---,0.05,VWS V14.01,2013-04-29 14:49:00,
2013-04-29 10:54:00,52.5,51.2,30.15,SE,132,8.4,18.8,95,0.05,,---,0.05,VWS V14.01,2013-04-29 14:54:00,
2013-04-29 10:59:00,52.4,51.2,30.15,South,169,8.3,18.8,96,0.05,,---,0.05,VWS V14.01,2013-04-29 14:59:00,
2013-04-29 11:04:00,52.3,51.2,30.15,South,179,3.8,18.8,96,0.00,,---,0.05,VWS V14.01,2013-04-29 15:04:00,
2013-04-29 11:09:00,52.2,51.0,30.15,South,173,7.3,18.8,96,0.05,,---,0.05,VWS V14.01,2013-04-29 15:09:00,
2013-04-29 11:14:00,52.4,51.2,30.15,SSW,201,11.7,18.8,96,0.05,,---,0.05,VWS V14.01,2013-04-29 15:14:00,
2013-04-29 11:19:00,52.2,51.0,30.15,SSW,197,9.5,18.8,96,0.05,,---,0.05,VWS V14.01,2013-04-29 15:19:00,
2013-04-29 11:24:00,52.1,50.4,30.15,SSE,165,7.3,18.8,94,0.05,,---,0.05,VWS V14.01,2013-04-29 15:24:00,
2013-04-29 11:29:00,52.1,50.6,30.15,South,174,9.4,18.8,95,0.00,,---,0.05,VWS V14.01,2013-04-29 15:29:00,
2013-04-29 11:34:00,51.6,50.0,30.15,SSE,149,10.7,18.8,94,0.06,,---,0.06,VWS V14.01,2013-04-29 15:34:00,
2013-04-29 11:39:00,52.1,50.7,30.15,South,176,9.5,18.8,95,0.06,,---,0.06,VWS V14.01,2013-04-29 15:39:00,
2013-04-29 11:44:00,51.9,50.5,30.15,South,174,8.0,18.8,95,0.06,,---,0.06,VWS V14.01,2013-04-29 15:44:00,
2013-04-29 11:49:00,52.6,51.3,30.15,South,179,12.3,18.8,95,0.06,,---,0.06,VWS V14.01,2013-04-29 15:49:00,
2013-04-29 11:54:00,51.9,50.7,30.15,SSE,166,7.1,18.8,96,0.00,,---,0.06,VWS V14.01,2013-04-29 15:54:00,
2013-04-29 11:59:00,52.2,50.9,30.15,SSE,155,6.3,18.8,95,0.06,,---,0.06,VWS V14.01,2013-04-29 15:59:00,
2013-04-29 12:04:00,52.9,51.4,30.15,SSE,150,10.9,18.8,95,0.06,,---,0.06,VWS V14.01,2013-04-29 16:04:00,
2013-04-29 12:09:00,52.3,49.9,30.14,SSE,163,13.1,18.8,92,0.06,,---,0.06,VWS V14.01,2013-04-29 16:09:00,
2013-04-29 12:14:00,52.7,50.0,30.14,SSE,156,9.4,18.8,90,0.06,,---,0.06,VWS V14.01,2013-04-29 16:14:00,
2013-04-29 12:19:00,52.8,49.2,30.15,SE,146,7.6,18.8,88,0.07,,---,0.07,VWS V14.01,2013-04-29 16:19:00,
2013-04-29 12:24:00,53.0,49.3,30.14,SSE,160,5.7,18.8,87,0.07,,---,0.07,VWS V14.01,2013-04-29 16:24:00,
2013-04-29 12:29:00,53.2,49.4,30.14,SSE,167,8.1,18.8,87,0.07,,---,0.07,VWS V14.01,2013-04-29 16:29:00,
2013-04-29 12:34:00,53.0,49.4,30.14,South,170,7.1,18.8,87,0.07,,---,0.07,VWS V14.01,2013-04-29 16:34:00,
2013-04-29 12:39:00,53.1,49.0,30.14,SSE,158,8.4,18.8,86,0.07,,---,0.07,VWS V14.01,2013-04-29 16:39:00,
2013-04-29 12:44:00,53.5,49.1,30.14,SE,143,9.2,18.8,85,0.07,,---,0.07,VWS V14.01,2013-04-29 16:44:00,
2013-04-29 12:49:00,53.1,48.5,30.14,SSE,148,10.1,18.8,84,0.07,,---,0.07,VWS V14.01,2013-04-29 16:49:00,
2013-04-29 12:54:00,53.0,48.2,30.14,ESE,110,11.1,18.8,84,0.07,,---,0.07,VWS V14.01,2013-04-29 16:54:00,
2013-04-29 12:59:00,53.2,47.9,30.14,SSE,165,10.6,18.8,82,0.07,,---,0.07,VWS V14.01,2013-04-29 16:59:00,
2013-04-29 13:04:00,53.2,47.8,30.14,South,177,10.5,18.8,82,0.07,,---,0.07,VWS V14.01,2013-04-29 17:04:00,
2013-04-29 13:09:00,53.4,47.6,30.14,South,169,9.4,18.8,81,0.07,,---,0.07,VWS V14.01,2013-04-29 17:09:00,
2013-04-29 13:14:00,53.5,47.8,30.14,SSW,197,6.4,18.8,81,0.07,,---,0.07,VWS V14.01,2013-04-29 17:14:00,
2013-04-29 13:19:00,53.5,47.6,30.14,SSE,150,9.4,18.8,80,0.00,,---,0.07,VWS V14.01,2013-04-29 17:19:00,
2013-04-29 13:24:00,53.3,47.3,30.14,SSE,160,14.3,21.3,80,0.07,,---,0.07,VWS V14.01,2013-04-29 17:24:00,
2013-04-29 13:29:00,53.3,48.2,30.14,SSE,152,5.7,21.3,83,0.08,,---,0.08,VWS V14.01,2013-04-29 17:29:00,
2013-04-29 13:34:00,52.8,48.1,30.14,South,183,6.3,21.3,84,0.08,,---,0.08,VWS V14.01,2013-04-29 17:34:00,
2013-04-29 13:39:00,53.0,48.6,30.13,SSE,155,7.6,21.3,85,0.08,,---,0.08,VWS V14.01,2013-04-29 17:39:00,
2013-04-29 13:44:00,52.3,48.1,30.13,SE,143,9.3,21.3,86,0.00,,---,0.08,VWS V14.01,2013-04-29 17:44:00,
2013-04-29 13:49:00,52.4,48.0,30.13,SSE,153,7.8,21.3,85,0.08,,---,0.08,VWS V14.01,2013-04-29 17:49:00,
2013-04-29 13:54:00,52.9,48.4,30.13,SE,127,4.8,21.3,84,0.08,,---,0.08,VWS V14.01,2013-04-29 17:54:00,
2013-04-29 13:59:00,53.2,48.5,30.13,South,180,9.8,21.3,84,0.08,,---,0.08,VWS V14.01,2013-04-29 17:59:00,
2013-04-29 14:04:00,53.5,48.3,30.13,SSE,160,6.0,21.3,82,0.08,,---,0.08,VWS V14.01,2013-04-29 18:04:00,
2013-04-29 14:09:00,53.9,47.7,30.13,SSE,166,11.3,21.3,79,0.00,,---,0.08,VWS V14.01,2013-04-29 18:09:00,
2013-04-29 14:14:00,54.2,46.7,30.13,SE,146,3.8,21.8,76,0.08,,---,0.08,VWS V14.01,2013-04-29 18:14:00,
2013-04-29 14:19:00,54.1,46.5,30.13,SSE,152,14.5,23.5,75,0.08,,---,0.08,VWS V14.01,2013-04-29 18:19:00,
2013-04-29 14:24:00,54.5,47.3,30.13,South,179,11.3,23.5,77,0.08,,---,0.08,VWS V14.01,2013-04-29 18:24:00,
2013-04-29 14:29:00,54.3,47.3,30.13,SSE,162,8.6,23.5,77,0.08,,---,0.08,VWS V14.01,2013-04-29 18:29:00,
2013-04-29 14:34:00,54.3,47.2,30.13,SSE,162,12.4,23.5,77,0.08,,---,0.08,VWS V14.01,2013-04-29 18:34:00,
2013-04-29 14:39:00,53.7,46.9,30.13,South,174,9.5,23.5,78,0.08,,---,0.08,VWS V14.01,2013-04-29 18:39:00,
2013-04-29 14:44:00,54.5,47.7,30.13,South,188,12.3,23.5,78,0.08,,---,0.08,VWS V14.01,2013-04-29 18:44:00,
2013-04-29 14:49:00,54.0,47.0,30.13,SE,146,8.0,23.5,77,0.08,,---,0.08,VWS V14.01,2013-04-29 18:49:00,
2013-04-29 14:54:00,54.4,47.1,30.13,SE,143,11.7,23.5,76,0.09,,---,0.09,VWS V14.01,2013-04-29 18:54:00,
2013-04-29 14:59:00,54.3,46.8,30.13,SE,139,8.9,23.5,76,0.09,,---,0.09,VWS V14.01,2013-04-29 18:59:00,
2013-04-29 15:04:00,53.9,46.6,30.13,South,179,6.5,23.5,76,0.09,,---,0.09,VWS V14.01,2013-04-29 19:04:00,
2013-04-29 15:09:00,54.2,47.3,30.12,ESE,103,7.4,23.5,77,0.09,,---,0.09,VWS V14.01,2013-04-29 19:09:00,
2013-04-29 15:14:00,54.1,48.1,30.12,South,173,4.9,23.5,80,0.09,,---,0.09,VWS V14.01,2013-04-29 19:14:00,
2013-04-29 15:19:00,54.1,48.4,30.11,SSE,158,10.6,23.5,81,0.09,,---,0.09,VWS V14.01,2013-04-29 19:19:00,
2013-04-29 15:24:00,53.6,48.0,30.12,SSE,156,5.8,23.5,81,0.09,,---,0.09,VWS V14.01,2013-04-29 19:24:00,
2013-04-29 15:29:00,53.5,47.8,30.12,SE,145,9.5,23.5,81,0.09,,---,0.09,VWS V14.01,2013-04-29 19:29:00,
2013-04-29 15:34:00,53.8,48.3,30.12,South,188,3.7,23.5,82,0.09,,---,0.09,VWS V14.01,2013-04-29 19:34:00,
2013-04-29 15:39:00,53.8,48.2,30.11,SSE,153,7.8,23.5,81,0.09,,---,0.09,VWS V14.01,2013-04-29 19:39:00,
2013-04-29 15:44:00,53.5,48.0,30.11,ESE,111,4.8,23.5,82,0.09,,---,0.09,VWS V14.01,2013-04-29 19:44:00,
2013-04-29 15:49:00,53.5,48.2,30.11,SSE,163,6.6,23.5,82,0.09,,---,0.09,VWS V14.01,2013-04-29 19:49:00,
2013-04-29 15:54:00,53.3,48.0,30.11,SSE,166,5.2,23.5,82,0.09,,---,0.09,VWS V14.01,2013-04-29 19:54:00,
2013-04-29 15:59:00,54.2,48.9,30.11,SSE,165,7.6,23.5,82,0.00,,---,0.09,VWS V14.01,2013-04-29 19:59:00,
2013-04-29 16:04:00,53.9,48.6,30.11,SSE,153,7.4,23.5,82,0.09,,---,0.09,VWS V14.01,2013-04-29 20:04:00,
2013-04-29 16:09:00,53.7,48.4,30.11,SSE,167,4.9,23.5,82,0.09,,---,0.09,VWS V14.01,2013-04-29 20:09:00,
2013-04-29 16:14:00,54.3,48.5,30.11,South,186,4.8,23.5,81,0.09,,---,0.09,VWS V14.01,2013-04-29 20:14:00,
2013-04-29 16:19:00,54.1,48.3,30.11,SE,145,5.7,23.5,81,0.09,,---,0.09,VWS V14.01,2013-04-29 20:19:00,
2013-04-29 16:24:00,54.1,48.3,30.11,SE,132,6.2,23.5,81,0.00,,---,0.09,VWS V14.01,2013-04-29 20:24:00,
2013-04-29 16:29:00,54.0,48.1,30.10,SE,128,7.2,23.5,80,0.09,,---,0.09,VWS V14.01,2013-04-29 20:29:00,
2013-04-29 16:34:00,54.1,48.2,30.11,SE,134,7.8,23.5,80,0.09,,---,0.09,VWS V14.01,2013-04-29 20:34:00,
2013-04-29 16:39:00,53.9,48.2,30.11,SE,129,4.1,23.5,81,0.09,,---,0.09,VWS V14.01,2013-04-29 20:39:00,
2013-04-29 16:44:00,53.6,48.0,30.11,SSE,167,5.8,23.5,81,0.09,,---,0.09,VWS V14.01,2013-04-29 20:44:00,
2013-04-29 16:49:00,54.1,48.7,30.11,SSE,153,7.0,23.5,82,0.00,,---,0.09,VWS V14.01,2013-04-29 20:49:00,
2013-04-29 16:54:00,53.7,48.4,30.11,South,173,7.3,23.5,82,0.09,,---,0.09,VWS V14.01,2013-04-29 20:54:00,
2013-04-29 16:59:00,54.5,49.2,30.11,SSE,158,9.7,23.5,82,0.09,,---,0.09,VWS V14.01,2013-04-29 20:59:00,
2013-04-29 17:04:00,54.1,48.8,30.11,SSE,158,8.0,23.5,82,0.09,,---,0.09,VWS V14.01,2013-04-29 21:04:00,
2013-04-29 17:09:00,54.6,49.2,30.11,SSE,149,6.7,23.5,82,0.09,,---,0.09,VWS V14.01,2013-04-29 21:09:00,
2013-04-29 17:14:00,54.6,49.0,30.10,South,191,6.8,23.5,81,0.09,,---,0.09,VWS V14.01,2013-04-29 21:14:00,
2013-04-29 17:19:00,54.8,49.0,30.11,South,169,9.4,23.5,81,0.09,,---,0.09,VWS V14.01,2013-04-29 21:19:00,
2013-04-29 17:24:00,55.2,49.5,30.11,SE,135,7.6,23.5,81,0.09,,---,0.09,VWS V14.01,2013-04-29 21:24:00,
2013-04-29 17:29:00,54.5,48.8,30.11,SSE,163,6.3,23.5,81,0.09,,---,0.09,VWS V14.01,2013-04-29 21:29:00,
2013-04-29 17:34:00,54.7,49.2,30.11,SSE,156,7.0,23.5,82,0.09,,---,0.09,VWS V14.01,2013-04-29 21:34:00,
2013-04-29 17:39:00,54.6,48.9,30.11,South,169,7.2,23.5,81,0.09,,---,0.09,VWS V14.01,2013-04-29 21:39:00,
2013-04-29 17:43:00,55.0,49.3,30.11,SSE,165,6.8,23.5,81,0.10,,---,0.10,VWS V14.01,2013-04-29 21:43:00,
2013-04-29 17:48:00,54.1,48.5,30.11,SSE,149,10.3,23.5,81,0.10,,---,0.10,VWS V14.01,2013-04-29 21:48:00,
2013-04-29 17:53:00,54.4,49.2,30.11,SE,142,7.6,23.5,82,0.10,,---,0.10,VWS V14.01,2013-04-29 21:53:00,
2013-04-29 17:58:00,54.3,49.5,30.11,South,174,9.6,23.5,84,0.10,,---,0.10,VWS V14.01,2013-04-29 21:58:00,
2013-04-29 18:03:00,54.2,49.9,30.11,SSE,153,6.3,23.5,85,0.00,,---,0.10,VWS V14.01,2013-04-29 22:03:00,
2013-04-29 18:08:00,53.6,49.6,30.11,SSE,163,4.9,23.5,86,0.10,,---,0.10,VWS V14.01,2013-04-29 22:08:00,
2013-04-29 18:13:00,53.8,50.1,30.11,SSE,153,6.2,23.5,87,0.10,,---,0.10,VWS V14.01,2013-04-29 22:13:00,
2013-04-29 18:18:00,53.8,50.3,30.11,SE,139,7.4,23.5,88,0.10,,---,0.10,VWS V14.01,2013-04-29 22:18:00,
2013-04-29 18:23:00,53.6,50.3,30.11,SSE,166,7.7,23.5,89,0.10,,---,0.10,VWS V14.01,2013-04-29 22:23:00,
2013-04-29 18:28:00,53.4,50.3,30.11,SSE,156,6.3,23.5,89,0.00,,---,0.10,VWS V14.01,2013-04-29 22:28:00,
2013-04-29 18:33:00,53.8,50.7,30.11,South,179,4.7,23.5,89,0.10,,---,0.10,VWS V14.01,2013-04-29 22:33:00,
2013-04-29 18:38:00,53.5,50.4,30.11,South,174,9.4,23.5,89,0.10,,---,0.10,VWS V14.01,2013-04-29 22:38:00,
2013-04-29 18:43:00,53.3,50.3,30.12,SSE,160,7.8,23.5,90,0.10,,---,0.10,VWS V14.01,2013-04-29 22:43:00,
2013-04-29 18:48:00,53.7,50.8,30.12,SE,135,6.0,23.5,90,0.10,,---,0.10,VWS V14.01,2013-04-29 22:48:00,
2013-04-29 18:53:00,53.0,50.1,30.12,SSE,149,8.0,23.5,90,0.00,,---,0.10,VWS V14.01,2013-04-29 22:53:00,
2013-04-29 18:58:00,53.3,50.5,30.12,SE,127,4.7,23.5,90,0.10,,---,0.10,VWS V14.01,2013-04-29 22:58:00,
2013-04-29 19:03:00,53.4,50.7,30.12,SSE,155,4.3,23.5,90,0.10,,---,0.10,VWS V14.01,2013-04-29 23:03:00,
2013-04-29 19:08:00,52.9,50.4,30.12,South,186,7.4,23.5,91,0.10,,---,0.10,VWS V14.01,2013-04-29 23:08:00,
2013-04-29 19:13:00,53.4,51.0,30.12,SSE,160,5.2,23.5,92,0.10,,---,0.10,VWS V14.01,2013-04-29 23:13:00,
2013-04-29 19:18:00,53.1,50.8,30.12,South,169,5.0,23.5,92,0.00,,---,0.10,VWS V14.01,2013-04-29 23:18:00,
2013-04-29 19:23:00,53.3,51.1,30.12,South,170,5.5,23.5,92,0.10,,---,0.10,VWS V14.01,2013-04-29 23:23:00,
2013-04-29 19:28:00,53.2,51.1,30.12,SSE,153,6.3,23.5,92,0.10,,---,0.10,VWS V14.01,2013-04-29 23:28:00,
2013-04-29 19:33:00,52.8,50.8,30.12,South,177,5.9,23.5,93,0.10,,---,0.10,VWS V14.01,2013-04-29 23:33:00,
2013-04-29 19:38:00,52.8,50.9,30.13,South,176,6.3,23.5,93,0.10,,---,0.10,VWS V14.01,2013-04-29 23:38:00,
2013-04-29 19:43:00,53.2,51.6,30.13,SSE,160,2.4,23.5,94,0.00,,---,0.10,VWS V14.01,2013-04-29 23:43:00,
2013-04-29 19:48:00,52.7,51.4,30.12,South,169,6.0,23.5,95,0.10,,---,0.10,VWS V14.01,2013-04-29 23:48:00,
2013-04-29 19:53:00,52.9,51.8,30.12,SE,139,5.5,23.5,96,0.10,,---,0.10,VWS V14.01,2013-04-29 23:53:00,
2013-04-29 19:58:00,52.7,51.7,30.13,SSE,159,2.1,23.5,96,0.10,,---,0.10,VWS V14.01,2013-04-29 23:58:00,
2013-04-29 20:03:00,52.1,51.2,30.13,SSE,155,4.1,23.5,97,0.10,,---,0.10,VWS V14.01,2013-04-30 00:03:00,
2013-04-29 20:08:00,52.5,51.7,30.13,SE,131,4.3,23.5,97,0.00,,---,0.10,VWS V14.01,2013-04-30 00:08:00,
2013-04-29 20:13:00,52.2,51.5,30.13,SE,125,4.8,23.5,97,0.10,,---,0.10,VWS V14.01,2013-04-30 00:13:00,
2013-04-29 20:18:00,52.3,51.6,30.13,SE,134,4.7,23.5,98,0.10,,---,0.10,VWS V14.01,2013-04-30 00:18:00,
2013-04-29 20:23:00,51.9,51.3,30.13,SSE,156,4.3,23.5,98,0.10,,---,0.10,VWS V14.01,2013-04-30 00:23:00,
2013-04-29 20:28:00,51.9,51.3,30.13,South,172,3.3,23.5,98,0.10,,---,0.10,VWS V14.01,2013-04-30 00:28:00,
2013-04-29 20:33:00,51.6,51.0,30.14,SE,125,2.7,23.5,98,0.10,,---,0.10,VWS V14.01,2013-04-30 00:33:00,
2013-04-29 20:38:00,51.9,51.3,30.14,SE,143,3.4,23.5,98,0.10,,---,0.10,VWS V14.01,2013-04-30 00:38:00,
2013-04-29 20:43:00,52.0,51.5,30.14,ESE,117,4.7,23.5,98,0.10,,---,0.10,VWS V14.01,2013-04-30 00:43:00,
2013-04-29 20:48:00,51.4,50.8,30.14,ESE,115,5.0,23.5,98,0.10,,---,0.10,VWS V14.01,2013-04-30 00:48:00,
2013-04-29 20:53:00,51.9,51.3,30.14,ESE,107,3.4,23.5,98,0.10,,---,0.10,VWS V14.01,2013-04-30 00:53:00,
2013-04-29 20:58:00,51.6,51.0,30.14,ENE,63,0.6,23.5,98,0.10,,---,0.10,VWS V14.01,2013-04-30 00:58:00,
2013-04-29 21:03:00,52.0,51.4,30.14,East,87,0.0,23.5,98,0.10,,---,0.10,VWS V14.01,2013-04-30 01:03:00,
2013-04-29 21:08:00,51.3,50.7,30.15,SSE,158,2.8,23.5,98,0.10,,---,0.10,VWS V14.01,2013-04-30 01:08:00,
2013-04-29 21:13:00,51.4,50.8,30.15,ENE,62,2.3,23.5,98,0.10,,---,0.10,VWS V14.01,2013-04-30 01:13:00,
2013-04-29 21:18:00,51.7,51.0,30.15,SE,129,4.1,23.5,98,0.10,,---,0.10,VWS V14.01,2013-04-30 01:18:00,
2013-04-29 21:23:00,51.6,51.0,30.15,ESE,120,3.0,23.5,98,0.11,,---,0.11,VWS V14.01,2013-04-30 01:23:00,
2013-04-29 21:28:00,51.6,50.9,30.15,SSE,149,4.6,23.5,97,0.11,,---,0.11,VWS V14.01,2013-04-30 01:28:00,
2013-04-29 21:33:00,51.3,50.6,30.15,SE,145,4.6,23.5,97,0.11,,---,0.11,VWS V14.01,2013-04-30 01:33:00,
2013-04-29 21:38:00,51.1,50.3,30.15,SE,136,2.9,23.5,97,0.11,,---,0.11,VWS V14.01,2013-04-30 01:38:00,
2013-04-29 21:43:00,51.1,50.3,30.15,SSE,166,4.7,23.5,97,0.11,,---,0.11,VWS V14.01,2013-04-30 01:43:00,
2013-04-29 21:48:00,51.5,50.7,30.15,ESE,120,4.2,23.5,97,0.11,,---,0.11,VWS V14.01,2013-04-30 01:48:00,
2013-04-29 21:53:00,51.0,50.1,30.15,SE,128,6.0,23.5,97,0.11,,---,0.11,VWS V14.01,2013-04-30 01:53:00,
2013-04-29 21:58:00,51.1,50.2,30.15,SE,141,4.3,23.5,97,0.11,,---,0.11,VWS V14.01,2013-04-30 01:58:00,
2013-04-29 22:03:00,51.6,50.7,30.15,SE,146,4.0,23.5,97,0.11,,---,0.11,VWS V14.01,2013-04-30 02:03:00,
2013-04-29 22:08:00,50.7,49.8,30.15,SSE,149,2.4,23.5,97,0.11,,---,0.11,VWS V14.01,2013-04-30 02:08:00,
2013-04-29 22:13:00,51.5,50.6,30.15,SE,138,3.2,23.5,97,0.11,,---,0.11,VWS V14.01,2013-04-30 02:13:00,
2013-04-29 22:18:00,50.2,49.3,30.15,SE,136,4.3,23.5,97,0.11,,---,0.11,VWS V14.01,2013-04-30 02:18:00,
2013-04-29 22:23:00,51.1,50.2,30.15,SE,124,7.0,23.5,97,0.11,,---,0.11,VWS V14.01,2013-04-30 02:23:00,
2013-04-29 22:28:00,50.6,49.8,30.15,South,183,6.9,23.5,97,0.11,,---,0.11,VWS V14.01,2013-04-30 02:28:00,
2013-04-29 22:33:00,51.0,50.2,30.15,SSE,166,5.2,23.5,97,0.11,,---,0.11,VWS V14.01,2013-04-30 02:33:00,
2013-04-29 22:38:00,50.5,49.8,30.15,SSE,150,4.0,23.5,97,0.11,,---,0.11,VWS V14.01,2013-04-30 02:38:00,
2013-04-29 22:43:00,51.1,50.4,30.15,SE,127,4.7,23.5,97,0.11,,---,0.11,VWS V14.01,2013-04-30 02:43:00,
2013-04-29 22:48:00,50.9,50.2,30.15,SE,146,2.9,23.5,97,0.11,,---,0.11,VWS V14.01,2013-04-30 02:48:00,
2013-04-29 22:53:00,50.9,50.2,30.15,South,170,9.2,23.5,97,0.11,,---,0.11,VWS V14.01,2013-04-30 02:53:00,
2013-04-29 22:58:00,153.2,99.9,30.15,ESE,120,1.0,23.5,98,0.11,,---,0.11,VWS V14.01,2013-04-30 02:58:00,
2013-04-29 23:03:00,50.4,49.8,30.15,SSE,160,3.6,23.5,98,0.11,,---,0.11,VWS V14.01,2013-04-30 03:03:00,
2013-04-29 23:08:00,50.7,50.0,30.15,SE,142,4.8,23.5,98,0.11,,---,0.11,VWS V14.01,2013-04-30 03:08:00,
2013-04-29 23:13:00,50.8,50.2,30.15,SSE,149,3.5,23.5,98,0.11,,---,0.11,VWS V14.01,2013-04-30 03:13:00,
2013-04-29 23:18:00,50.1,49.5,30.15,SSE,159,6.4,23.5,98,0.11,,---,0.11,VWS V14.01,2013-04-30 03:18:00,
2013-04-29 23:23:00,51.0,50.5,30.15,SSE,150,5.3,23.5,98,0.11,,---,0.11,VWS V14.01,2013-04-30 03:23:00,
2013-04-29 23:28:00,50.8,50.3,30.14,NNE,25,2.8,23.5,98,0.11,,---,0.11,VWS V14.01,2013-04-30 03:28:00,
2013-04-29 23:32:00,50.4,49.9,30.14,SSE,156,8.1,23.5,98,0.11,,---,0.11,VWS V14.01,2013-04-30 03:32:00,
2013-04-29 23:37:00,50.2,49.7,30.15,East,94,6.0,23.5,98,0.11,,---,0.11,VWS V14.01,2013-04-30 03:37:00,
2013-04-29 23:42:00,50.6,50.2,30.15,East,101,4.4,23.5,98,0.11,,---,0.11,VWS V14.01,2013-04-30 03:42:00,
2013-04-29 23:47:00,50.0,49.5,30.15,SE,125,5.9,23.5,98,0.00,,---,0.11,VWS V14.01,2013-04-30 03:47:00,
2013-04-29 23:52:00,50.3,49.8,30.14,SE,135,3.2,23.5,98,0.11,,---,0.11,VWS V14.01,2013-04-30 03:52:00,
2013-04-29 23:57:00,50.0,49.5,30.14,SE,145,5.0,23.5,98,0.11,,---,0.11,VWS V14.01,2013-04-30 03:57:00,